DL1GHN-6 Weather Reports


time (UTC)temp
C
wind
direction
speed
KPH
gust
KPH
rain 1hr
cm
rain 24hr
cm
rain mn
cm
humidity
%
barometer
mb
20260504000522 12 82 0.0 3.2 0.00 0.00 0.00 69 1014.3
20260504000022 12 155 0.0 1.6 0.00 0.00 0.00 67 1014.3
20260503235522 13 161 0.0 0.0 0.00 0.00 0.00 66 1014.3
20260503235022 13 161 0.0 1.6 0.00 0.00 0.00 66 1014.3
20260503234522 13 161 0.0 1.6 0.00 0.00 0.00 65 1014.3
20260503234021 13 161 0.0 0.0 0.00 0.00 0.00 64 1014.3
20260503233522 14 161 0.0 3.2 0.00 0.00 0.00 64 1014.2
20260503233021 14 162 0.0 3.2 0.00 0.00 0.00 63 1014.2
20260503232521 15 163 1.6 3.2 0.00 0.00 0.00 62 1014.2
20260503232021 15 30 0.0 1.6 0.00 0.00 0.00 62 1014.2
20260503231521 15 29 0.0 1.6 0.00 0.00 0.00 60 1014.2
20260503231021 15 29 0.0 1.6 0.00 0.00 0.00 59 1014.2
20260503230522 15 25 0.0 1.6 0.00 0.00 0.00 59 1014.2
20260503230020 15 25 0.0 1.6 0.00 0.00 0.00 58 1014.2
20260503225522 16 32 0.0 3.2 0.00 0.00 0.00 58 1014.2
20260503225021 16 108 0.0 1.6 0.00 0.00 0.00 58 1014.2
20260503224522 16 173 0.0 1.6 0.00 0.00 0.00 57 1014.1
20260503224021 16 223 0.0 4.8 0.00 0.00 0.00 56 1014.1
20260503223522 16 263 1.6 3.2 0.00 0.00 0.00 54 1014.1
20260503223022 16 279 1.6 3.2 0.00 0.00 0.00 54 1014.0
20260503222521 16 225 0.0 1.6 0.00 0.00 0.00 53 1014.0
20260503222022 16 192 0.0 1.6 0.00 0.00 0.00 52 1014.0
20260503221521 16 171 1.6 1.6 0.00 0.00 0.00 51 1014.0
20260503221022 16 171 1.6 3.2 0.00 0.00 0.00 51 1013.9
20260503220522 16 180 0.0 1.6 0.00 0.00 0.00 51 1013.9
20260503220022 16 157 1.6 8.0 0.00 0.00 0.00 51 1013.9
20260503215522 16 118 1.6 4.8 0.00 0.00 0.00 51 1014.0
20260503215021 17 95 0.0 3.2 0.00 0.00 0.00 51 1014.1
20260503214522 17 98 0.0 3.2 0.00 0.00 0.00 50 1014.1
20260503214021 17 134 1.6 4.8 0.00 0.00 0.00 50 1014.1
20260503213522 17 257 0.0 3.2 0.00 0.00 0.00 50 1014.1
20260503213021 17 261 0.0 6.4 0.00 0.00 0.00 49 1014.0
20260503212521 17 159 1.6 6.4 0.00 0.00 0.00 50 1014.0
20260503212021 17 168 3.2 8.0 0.00 0.00 0.00 49 1014.0
20260503211521 17 262 0.0 3.2 0.00 0.00 0.00 49 1013.9
20260503211021 17 250 1.6 6.4 0.00 0.00 0.00 49 1013.9
20260503210522 17 175 1.6 8.0 0.00 0.00 0.00 49 1013.9
20260503210021 17 179 0.0 4.8 0.00 0.00 0.00 50 1013.9
20260503205521 17 127 1.6 8.0 0.00 0.00 0.00 50 1013.9
20260503205020 17 169 1.6 4.8 0.00 0.00 0.00 50 1014.0
20260503204522 17 229 0.0 4.8 0.00 0.00 0.00 51 1014.0
20260503204020 17 157 3.2 4.8 0.00 0.00 0.00 51 1014.0
20260503203522 17 141 4.8 11.3 0.00 0.00 0.00 51 1014.0
20260503203022 17 161 1.6 8.0 0.00 0.00 0.00 52 1014.0
20260503202521 16 195 1.6 6.4 0.00 0.00 0.00 52 1014.0
20260503202022 16 210 0.0 4.8 0.00 0.00 0.00 52 1014.1
20260503201521 16 145 3.2 6.4 0.00 0.00 0.00 53 1014.1
20260503201022 16 155 0.0 1.6 0.00 0.00 0.00 54 1014.1
20260503200522 16 255 0.0 4.8 0.00 0.00 0.00 54 1014.0
20260503200021 16 138 3.2 4.8 0.00 0.00 0.00 54 1014.0
20260503195521 16 121 1.6 4.8 0.00 0.00 0.00 55 1014.0
20260503195022 16 143 0.0 0.0 0.00 0.00 0.00 57 1014.0
20260503194522 16 143 0.0 1.6 0.00 0.00 0.00 56 1014.1
20260503194021 16 122 0.0 3.2 0.00 0.00 0.00 54 1014.0
20260503193521 17 113 1.6 3.2 0.00 0.00 0.00 53 1014.0
20260503193022 17 152 0.0 1.6 0.00 0.00 0.00 51 1013.9
20260503192522 17 205 0.0 3.2 0.00 0.00 0.00 50 1013.9
20260503192022 17 37 0.0 1.6 0.00 0.00 0.00 50 1013.9
20260503191521 17 45 1.6 3.2 0.00 0.00 0.00 50 1013.7
20260503191022 17 76 1.6 3.2 0.00 0.00 0.00 49 1013.8
20260503190520 17 107 1.6 4.8 0.00 0.00 0.00 47 1013.8
20260503190021 17 93 1.6 4.8 0.00 0.00 0.00 47 1013.8
20260503185521 18 93 1.6 3.2 0.00 0.00 0.00 46 1014.0
20260503185021 18 133 0.0 4.8 0.00 0.00 0.00 46 1014.1
20260503184521 18 197 3.2 8.0 0.00 0.00 0.00 45 1014.1
20260503184021 18 279 4.8 9.7 0.00 0.00 0.00 45 1014.2
20260503183522 18 302 4.8 9.7 0.00 0.00 0.00 43 1014.1
20260503183021 19 254 4.8 8.0 0.00 0.00 0.00 43 1014.1
20260503182522 19 239 3.2 9.7 0.00 0.00 0.00 43 1014.0
20260503182022 19 165 8.0 11.3 0.00 0.00 0.00 42 1014.1
20260503181522 19 215 4.8 9.7 0.00 0.00 0.00 40 1014.2
20260503181022 19 206 3.2 9.7 0.00 0.00 0.00 40 1014.1
20260503180521 19 195 3.2 4.8 0.00 0.00 0.00 40 1014.1
20260503180021 20 117 6.4 11.3 0.00 0.00 0.00 39 1014.1
20260503175522 20 259 8.0 14.5 0.00 0.00 0.00 39 1014.1
20260503175022 20 326 8.0 16.1 0.00 0.00 0.00 39 1014.1
20260503174520 20 156 6.4 9.7 0.00 0.00 0.00 39 1014.1
20260503174020 20 296 8.0 19.3 0.00 0.00 0.00 39 1014.1
20260503173521 20 207 8.0 19.3 0.00 0.00 0.00 38 1014.2
20260503173021 20 200 3.2 16.1 0.00 0.00 0.00 39 1014.2
20260503172522 20 241 4.8 14.5 0.00 0.00 0.00 40 1014.1
20260503172022 20 208 3.2 9.7 0.00 0.00 0.00 40 1014.1
20260503171521 20 195 4.8 8.0 0.00 0.00 0.00 39 1014.0
20260503171021 20 246 3.2 8.0 0.00 0.00 0.00 40 1014.0
20260503170522 20 197 3.2 6.4 0.00 0.00 0.00 41 1014.0
20260503150520 23 253 9.7 24.1 0.00 0.00 0.00 30 1013.2
20260503131021 26 237 6.4 16.1 0.00 0.00 0.00 38 1013.0
20260503130522 26 173 8.0 16.1 0.00 0.00 0.00 32 1013.1
20260503110521 23 143 8.0 16.1 0.00 0.00 0.00 42 1013.9
20260503081521 21 170 6.4 12.9 0.00 0.00 0.00 50 1014.9
20260503081021 21 168 6.4 12.9 0.00 0.00 0.00 49 1014.9
20260503080521 21 198 6.4 11.3 0.00 0.00 0.00 50 1014.9
20260503072522 18 146 1.6 9.7 0.00 0.00 0.00 61 1015.1
20260503072021 17 112 3.2 8.0 0.00 0.00 0.00 60 1015.2
20260503071521 17 147 1.6 11.3 0.00 0.00 0.00 61 1015.1
20260503071022 17 165 3.2 6.4 0.00 0.00 0.00 61 1015.2
20260503070521 17 96 4.8 9.7 0.00 0.00 0.00 62 1015.2
20260503055022 14 241 0.0 3.2 0.00 0.00 0.00 76 1015.1
20260503054521 13 219 0.0 3.2 0.00 0.00 0.00 76 1015.1
20260503054022 13 322 4.8 6.4 0.00 0.00 0.00 76 1015.1
20260503053522 13 234 3.2 4.8 0.00 0.00 0.00 77 1015.1
20260503053021 13 231 0.0 3.2 0.00 0.00 0.00 77 1015.0
20260503052521 13 238 1.6 3.2 0.00 0.00 0.00 77 1014.8
20260503052021 13 153 1.6 3.2 0.00 0.00 0.00 77 1014.8
20260503051520 13 157 0.0 1.6 0.00 0.00 0.00 77 1014.7
20260503051021 13 157 0.0 3.2 0.00 0.00 0.00 77 1014.7
20260503050521 13 65 1.6 3.2 0.00 0.00 0.00 75 1014.7
20260503050021 14 79 0.0 3.2 0.00 0.00 0.00 75 1014.9
20260503045520 14 88 0.0 3.2 0.00 0.00 0.00 75 1014.9
20260503045021 14 148 0.0 3.2 0.00 0.00 0.00 74 1014.9
20260503044522 14 168 0.0 1.6 0.00 0.00 0.00 74 1014.9
20260503044021 14 166 1.6 3.2 0.00 0.00 0.00 74 1014.8
20260503043521 14 251 1.6 3.2 0.00 0.00 0.00 74 1014.9
20260503043021 14 217 3.2 6.4 0.00 0.00 0.00 74 1014.9
20260503042521 14 159 1.6 12.9 0.00 0.00 0.00 74 1014.9
20260503042022 15 207 9.7 14.5 0.00 0.00 0.00 74 1014.9
20260503041521 15 269 3.2 6.4 0.00 0.00 0.00 73 1014.6
20260503041022 15 301 1.6 3.2 0.00 0.00 0.00 73 1014.5
20260503040521 15 311 3.2 11.3 0.00 0.00 0.00 73 1014.6
20260503040020 15 259 0.0 8.0 0.00 0.00 0.00 71 1014.6
20260503035521 15 82 1.6 6.4 0.00 0.00 0.00 72 1014.5
20260503035021 14 109 4.8 8.0 0.00 0.00 0.00 73 1014.5
20260503034521 14 182 3.2 4.8 0.00 0.00 0.00 76 1014.5
20260503034022 13 355 0.0 3.2 0.00 0.00 0.00 77 1014.5
20260503033520 13 327 1.6 6.4 0.00 0.00 0.00 76 1014.6
20260503033020 13 53 3.2 9.7 0.00 0.00 0.00 77 1014.4
20260503032522 12 88 1.6 8.0 0.00 0.00 0.00 80 1014.4
20260503031754 12 104 0.0 1.6 0.00 0.00 0.00 81 1014.7
20260503031255 12 248 0.0 1.6 0.00 0.00 0.00 81 1014.9
20260503030754 12 270 0.0 3.2 0.00 0.00 0.00 81 1014.8
20260503030254 12 132 0.0 1.6 0.00 0.00 0.00 81 1014.9
20260503025754 11 133 0.0 1.6 0.00 0.00 0.00 81 1014.9
20260503025254 11 227 0.0 3.2 0.00 0.00 0.00 81 1014.8
20260503024755 11 300 1.6 3.2 0.00 0.00 0.00 80 1014.8
20260503024255 11 185 0.0 4.8 0.00 0.00 0.00 80 1014.9
20260503023754 11 259 1.6 3.2 0.00 0.00 0.00 80 1014.9
20260503023255 11 280 1.6 3.2 0.00 0.00 0.00 80 1014.9
20260503022754 11 131 0.0 1.6 0.00 0.00 0.00 80 1014.9
20260503022255 11 131 0.0 1.6 0.00 0.00 0.00 80 1014.9
20260503021755 11 131 0.0 0.0 0.00 0.00 0.00 79 1015.0
20260503021255 11 131 0.0 0.0 0.00 0.00 0.00 79 1014.9
20260503020754 11 131 0.0 1.6 0.00 0.00 0.00 79 1014.9
20260503020255 11 137 0.0 1.6 0.00 0.00 0.00 79 1015.0
20260503015754 11 137 0.0 1.6 0.00 0.00 0.00 79 1015.1
20260503015254 11 137 0.0 1.6 0.00 0.00 0.00 79 1015.1
20260503014754 11 139 1.6 3.2 0.00 0.00 0.00 79 1015.1
20260503014253 11 160 1.6 4.8 0.00 0.00 0.00 79 1015.1
20260503013754 11 164 0.0 3.2 0.00 0.00 0.00 78 1015.1
20260503013255 12 171 0.0 1.6 0.00 0.00 0.00 78 1015.1
20260503012754 12 171 0.0 0.0 0.00 0.00 0.00 78 1015.1
20260503012255 12 171 0.0 1.6 0.00 0.00 0.00 78 1015.1
20260503011755 12 171 0.0 3.2 0.00 0.00 0.00 78 1015.1
20260503011255 12 188 0.0 3.2 0.00 0.00 0.00 78 1015.1
20260503010755 12 138 0.0 1.6 0.00 0.00 0.00 78 1015.1
20260503010254 12 140 0.0 3.2 0.00 0.00 0.00 77 1015.1
20260503005753 12 136 1.6 3.2 0.00 0.00 0.00 77 1015.1
20260503005255 12 144 0.0 1.6 0.00 0.00 0.00 77 1015.1
20260503004754 12 138 0.0 1.6 0.00 0.00 0.00 77 1015.2
20260503004254 12 134 1.6 3.2 0.00 0.00 0.00 77 1015.1
20260503003754 12 130 1.6 3.2 0.00 0.00 0.00 77 1015.3
20260503003253 12 139 3.2 4.8 0.00 0.00 0.00 76 1015.3
20260503002754 12 151 1.6 3.2 0.00 0.00 0.00 76 1015.4
20260503002254 12 142 0.0 3.2 0.00 0.00 0.00 76 1015.5
20260503001754 12 141 1.6 3.2 0.00 0.00 0.00 75 1015.4
20260503001254 12 153 0.0 3.2 0.00 0.00 0.00 75 1015.4
20260503000753 12 140 1.6 3.2 0.00 0.00 0.00 75 1015.5